Location: Days
(41.3591°N, 106.7339°W)
Time: 21:37:56
(UTC+00:00)

O/OREOS (USA 219) - Pass Details

Date: 05 July 2022
Orbit: 621 x 646 km, 72.0° (Epoch: 22 May)

Event Time Altitude Azimuth Distance (km) Brightness Sun altitude
Rises 07:03:12 0° 335° (NNW) 2,964 ? -25.8°
Reaches altitude 10° 07:05:30 10° 333° (NNW) 2,051 ? -25.8°
Enters shadow 07:09:30 60° 295° (WNW) 741 ? -25.9°
